Dewpoint
74 74 74 71 71 72 74 73 73 69 69 68 68 68 67 69 68 67 63 65 65 66 64 66 74 69 73 76 75 74 74 74 75 74 74 74 77 74 75 75 75 74 73 73 73 73 73 73 73 74 74 74 74 74 74 74 74 74 74 74 74 74 74 73 74 74 74 74 74 74 73 74 73 73
73 72 72 71 71 72 74 75 74 70 70 69 68 68 68 69 68 68 66 65 66 65 66 67 71 73 73 75 74 73 74 76 74 73 74 75 76 73 74 75 74 74 74 73 73 73 72 73 73 73 74 74 74 74 74 74 74 74 74 74 74 74 73 74 74 74 74 74 74 74 74 74 73 73
73 74 72 73 72 72 73 74 73 70 67 68 68 67 68 69 70 70 70 67 67 65 66 68 71 71 73 72 71 72 74 74 74 73 74 76 75 74 74 74 74 74 74 74 73 73 73 73 73 74 74 74 74 73 74 74 74 74 74 74 74 74 74 74 74 74 73 74 74 74 74 74 74 74
73 74 73 74 74 73 72 71 70 68 68 69 68 68 69 70 71 71 71 70 69 68 65 66 68 71 71 72 70 71 73 75 75 74 73 78 74 75 74 72 73 73 73 73 73 73 73 73 73 74 74 74 74 74 74 74 74 74 74 74 73 73 74 74 74 74 74 74 74 74 74 73 73 73
72 74 73 73 73 73 71 72 71 67 67 68 68 69 69 68 70 72 72 71 70 70 69 67 67 69 70 70 70 69 72 75 76 74 75 77 76 76 74 74 71 72 73 73 73 73 73 74 73 74 74 74 74 74 74 74 74 74 74 73 73 74 74 73 73 74 74 73 73 73 73 73 73 73
73 73 73 73 73 73 72 71 71 67 66 66 66 67 67 68 69 71 70 70 70 70 71 70 70 67 70 68 71 72 73 75 77 75 74 76 78 76 75 74 73 70 71 72 72 72 72 73 74 74 73 73 74 74 73 73 74 75 75 75 74 73 73 73 73 73 73 73 73 73 73 73 73 73
74 73 73 72 72 71 71 71 69 68 67 67 67 67 67 67 67 69 71 71 70 70 69 70 69 70 71 72 72 77 77 78 78 77 75 75 76 75 75 75 74 69 71 71 71 71 71 71 72 72 72 73 73 73 74 74 73 73 73 71 70 71 72 72 72 73 74 74 73 73 73 73 73 73
74 73 73 72 72 73 72 71 70 70 69 70 70 68 69 69 68 69 69 71 72 70 69 70 69 67 69 73 75 77 78 77 77 76 76 76 74 74 74 74 73 72 70 70 70 70 70 70 70 70 70 71 72 71 70 71 70 70 69 69 69 70 70 70 70 71 73 73 73 73 73 73 73 73
73 73 72 71 72 72 72 71 70 70 70 69 69 69 70 69 69 69 70 71 72 71 71 70 71 72 70 73 77 77 75 75 75 76 75 76 76 75 73 74 75 72 70 69 69 69 69 69 69 68 68 68 69 68 69 69 68 68 67 66 67 67 68 68 68 69 70 70 70 70 70 70 70 70
74 75 74 73 74 73 72 70 70 71 70 70 69 70 70 69 69 70 70 71 71 72 71 72 72 73 70 73 75 76 75 73 73 74 74 74 75 75 73 74 74 75 75 74 72 69 68 67 67 68 68 67 67 68 67 67 66 66 65 65 65 66 66 66 66 66 66 67 67 67 67 68 68 69
74 75 75 74 74 74 73 71 72 72 71 70 71 71 71 70 70 70 70 71 71 71 72 72 71 72 72 72 72 73 74 74 74 74 73 73 74 74 74 73 74 74 74 72 70 71 70 69 70 67 67 67 67 67 67 66 66 65 64 62 64 65 65 65 65 65 65 65 64 64 64 66 67 68
73 74 75 75 74 74 75 75 74 74 71 72 71 70 70 71 71 71 69 72 72 71 71 70 73 74 73 72 72 73 73 74 74 74 73 73 72 73 74 74 73 74 74 73 73 72 71 71 71 68 67 68 68 68 67 66 66 66 64 62 63 64 64 64 64 64 63 63 62 62 61 61 63 65
73 74 75 74 72 73 74 74 74 75 74 74 73 74 74 74 73 72 74 72 71 71 71 72 72 72 73 73 72 71 72 72 72 72 72 73 73 73 73 74 75 74 72 72 72 73 73 73 73 73 73 73 70 71 68 69 67 67 64 63 63 64 63 63 63 62 62 62 62 61 60 59 59 60
73 73 74 73 74 74 74 74 74 75 75 75 74 73 74 75 75 74 75 73 72 71 70 70 70 72 72 72 71 70 71 73 72 72 72 72 72 73 72 73 74 75 73 72 72 72 73 72 72 73 73 73 73 72 71 70 69 67 65 64 63 63 63 62 62 62 61 61 60 60 60 59 59 58
73 72 72 72 73 75 74 75 74 74 74 74 74 74 74 74 75 75 74 74 74 71 70 71 70 71 72 72 71 71 71 73 72 72 71 71 72 71 70 69 73 75 75 73 72 72 73 72 71 72 73 73 73 73 71 68 67 66 65 64 63 63 63 62 62 61 60 60 60 59 59 59 58 58
71 72 73 74 74 74 75 74 74 74 75 74 74 74 74 74 74 73 74 74 73 71 70 70 70 70 72 72 72 71 71 71 72 73 72 71 71 70 69 70 70 73 74 73 72 71 74 73 71 72 73 73 72 69 65 65 66 65 64 63 63 62 62 62 61 61 61 60 60 60 59 59 59 58
72 74 73 73 73 73 74 74 75 74 75 74 74 74 74 74 74 72 72 73 74 73 71 70 71 72 72 71 71 72 72 72 72 72 70 70 70 71 71 71 70 71 73 73 71 70 72 73 72 71 71 72 72 69 63 62 63 62 62 62 62 61 61 61 61 61 60 60 60 59 58 58 58 58
74 73 72 73 72 73 74 75 74 74 74 75 74 74 74 74 74 74 73 73 73 73 73 71 70 73 73 72 73 73 72 71 72 70 69 70 72 72 72 73 73 74 73 72 72 71 71 72 70 70 71 71 68 66 61 60 61 61 61 60 60 60 60 60 60 60 60 59 59 58 58 57 57 57
72 73 73 73 73 73 73 73 73 74 73 73 72 73 73 73 74 74 74 74 73 74 73 73 74 74 73 74 74 75 75 72 72 72 73 73 74 74 74 73 74 73 74 73 71 68 69 70 70 70 70 69 68 66 60 59 60 60 59 59 59 60 60 60 60 60 59 59 59 58 57 57 57 57
73 74 73 73 73 73 73 73 71 72 75 74 72 73 74 74 74 73 76 70 71 76 75 73 74 73 74 70 75 76 75 74 75 74 74 74 73 70 69 68 69 70 70 72 70 68 68 70 69 69 67 66 65 64 65 59 59 59 59 58 58 58 58 59 59 59 59 59 58 57 56 55 55 55
73 72 73 73 73 72 73 71 66 69 73 73 72 72 73 70 71 71 75 70 68 67 66 65 66 66 66 66 65 64 66 72 74 74 72 68 69 69 67 66 68 68 70 73 72 69 68 70 70 69 68 67 66 65 65 64 58 58 58 58 58 58 57 58 58 58 58 58 57 57 55 54 54 56
70 71 70 71 71 71 71 64 63 66 72 73 72 71 71 70 70 70 70 73 73 65 65 66 66 66 66 67 68 68 66 66 69 73 69 69 69 68 67 65 65 66 68 70 70 69 67 69 69 68 67 66 66 66 66 65 63 57 57 57 57 57 57 57 57 57 57 57 56 56 55 55 55 60
70 71 71 72 71 71 66 59 61 63 70 72 71 70 71 70 70 70 70 70 69 71 70 72 73 73 70 72 72 73 71 71 72 73 71 71 70 67 67 66 67 64 65 71 74 68 69 68 68 67 66 65 66 65 65 64 64 63 63 62 62 57 57 57 56 56 56 56 56 56 55 55 55 62
69 68 69 71 63 60 59 57 56 59 62 71 71 72 71 70 68 70 70 69 69 68 66 67 68 68 69 69 69 69 73 73 73 73 72 73 70 68 68 66 66 64 65 72 74 70 68 68 67 68 67 65 63 64 63 64 63 63 62 62 62 58 57 57 55 54 55 55 55 55 55 56 55 62
67 68 67 67 63 58 58 56 55 56 59 65 70 69 69 68 67 68 68 68 67 67 67 67 67 67 67 68 68 69 70 70 70 71 71 71 71 69 68 67 67 66 69 72 68 72 67 67 67 67 67 66 66 65 65 64 64 63 63 62 62 61 61 61 59 60 53 53 53 53 53 54 54 60
64 64 66 67 64 57 57 55 54 54 57 62 70 67 57 59 63 68 67 67 66 65 65 64 64 64 64 64 66 67 68 68 70 70 70 71 71 71 71 70 69 67 68 71 66 70 68 67 66 66 66 65 65 64 64 64 64 63 62 62 62 62 61 61 61 61 60 60 59 57 56 54 55 55
64 66 66 67 62 56 53 53 54 54 56 62 64 55 57 59 61 67 65 65 66 66 65 65 65 66 66 66 66 68 69 69 69 69 69 69 69 70 69 70 70 69 69 69 69 69 69 68 68 67 66 65 65 64 64 63 63 63 62 61 62 61 61 60 60 60 60 59 58 54 54 54 54 55
68 67 66 66 55 51 49 50 53 55 60 63 53 56 59 61 64 67 66 65 67 66 65 66 66 66 66 67 68 68 68 67 68 68 68 68 68 68 68 67 67 67 68 68 68 68 68 68 67 68 67 66 64 62 62 63 63 62 62 62 61 61 60 60 60 59 59 59 59 58 59 58 59 59
67 58 52 51 51 51 51 52 55 56 60 57 56 57 60 65 67 67 65 65 66 66 66 64 66 66 67 67 68 68 68 68 68 67 67 67 67 67 67 67 66 67 66 67 67 68 68 67 67 66 66 66 64 64 63 63 62 62 61 60 60 60 60 60 59 59 59 59 59 59 59 59 59 59
58 56 54 54 54 55 58 64 66 67 67 61 62 62 64 67 64 62 63 65 64 65 65 66 65 67 68 69 68 68 68 67 67 67 67 67 66 66 66 65 66 65 65 66 66 66 67 66 66 66 65 64 64 64 64 62 62 62 61 60 61 59 59 59 59 59 58 58 58 59 59 60 59 59
63 61 61 64 62 60 63 65 65 66 67 67 67 66 66 65 62 64 65 64 65 64 64 65 65 66 67 68 67 67 67 67 67 67 66 65 65 65 65 65 64 64 64 64 64 64 65 66 66 65 65 64 63 64 64 63 62 61 60 61 59 59 59 59 59 59 58 58 58 58 59 59 59 60
66 66 65 64 66 66 65 65 65 65 66 65 65 65 64 61 61 62 61 62 64 65 64 65 66 66 66 66 66 66 65 65 66 66 65 64 64 64 65 63 63 63 63 63 64 65 64 65 65 65 65 65 64 64 64 63 62 62 60 60 60 60 59 58 58 58 59 59 58 58 57 57 57 58
65 66 65 65 65 65 64 64 64 64 64 65 63 63 62 61 62 61 60 63 64 65 64 65 66 65 64 65 64 64 64 64 64 65 65 65 64 64 63 62 63 62 61 63 62 63 64 64 64 64 65 64 64 64 63 61 61 61 60 60 59 59 59 58 58 58 59 58 57 57 56 57 57 57
65 64 63 62 61 62 63 62 62 63 62 62 60 60 61 61 59 59 59 59 61 64 63 64 62 64 63 63 63 63 63 63 63 63 62 64 63 63 62 61 62 62 61 61 61 62 62 63 63 63 64 64 63 64 63 61 61 61 60 60 59 59 59 59 58 58 58 57 57 56 56 56 56 56
62 59 59 59 59 58 61 61 60 60 61 61 59 59 60 61 59 59 59 59 59 60 60 61 62 62 62 62 62 62 62 62 62 62 63 63 63 61 60 60 61 61 61 61 60 61 61 62 62 61 61 62 61 63 59 62 61 62 60 59 59 59 59 58 57 58 58 57 57 56 56 56 56 56
60 60 60 59 60 61 60 59 60 59 59 59 61 59 59 58 59 59 59 60 60 59 59 60 61 61 61 61 62 62 62 62 61 61 60 61 61 60 59 59 60 59 60 60 60 61 60 60 60 59 59 59 59 58 60 57 58 62 61 59 59 59 58 59 59 58 57 57 57 56 55 55 56 56
60 61 60 59 61 60 59 60 60 61 59 59 59 59 59 58 59 59 63 62 60 59 59 59 58 58 59 60 61 61 60 59 58 59 57 56 56 56 56 57 59 60 59 60 60 60 60 60 60 59 59 57 56 55 57 60 57 57 62 59 60 59 59 58 57 57 56 57 57 56 56 56 56 56
62 61 61 61 61 61 60 60 60 60 61 60 59 59 59 59 59 59 66 63 60 59 58 56 57 58 58 58 59 59 58 57 57 57 55 56 57 57 55 55 55 57 57 59 59 59 59 59 59 59 58 57 55 55 55 59 58 56 56 61 58 59 59 58 56 56 56 57 56 56 56 56 56 56
62 61 61 61 61 61 60 59 60 60 60 60 60 59 61 60 59 58 61 59 60 59 58 58 57 58 59 58 58 59 56 56 55 56 55 55 55 56 55 55 55 55 57 57 58 59 59 58 58 58 58 57 57 57 57 56 55 57 56 55 59 58 58 57 56 56 56 55 55 57 57 58 53 52
63 61 61 61 61 61 60 61 61 60 61 60 60 61 61 61 59 59 58 59 60 60 58 57 58 59 58 58 57 56 56 56 56 56 55 56 55 56 56 55 55 56 56 56 55 57 58 57 58 58 58 58 59 59 57 56 55 56 58 58 53 57 58 56 56 56 56 56 57 56 55 56 55 56
64 63 62 62 62 61 61 61 61 62 61 62 63 63 62 61 61 60 59 58 61 60 57 57 58 60 59 58 58 55 56 56 56 55 55 55 55 56 56 55 55 54 54 54 54 53 54 55 63 60 63 61 60 59 56 54 52 53 53 56 53 53 54 54 61 58 57 58 57 55 54 54 54 55
64 63 62 62 62 62 60 61 61 61 63 61 61 60 63 63 62 62 60 62 63 62 59 58 58 58 58 58 58 57 57 56 56 55 55 55 55 57 58 57 55 54 53 52 51 52 56 63 62 61 60 58 56 54 52 52 51 49 53 56 57 53 53 54 54 54 62 61 56 54 55 54 55 54
64 63 62 62 62 62 61 61 61 62 61 61 60 61 61 61 60 60 59 60 61 59 59 59 58 58 57 57 57 57 56 56 56 56 56 57 56 55 56 58 58 55 53 52 53 55 58 61 61 58 58 57 56 55 53 51 51 51 53 52 54 58 57 53 53 53 53 53 53 55 58 57 54 52
64 64 63 63 63 63 63 61 61 61 63 62 61 61 61 60 60 60 60 58 58 59 58 58 58 57 58 58 57 58 56 55 57 59 57 57 57 56 54 55 56 57 56 54 54 54 55 58 60 58 56 56 55 54 53 52 51 49 49 51 53 55 54 57 57 54 52 52 52 52 52 52 53 53
65 64 63 63 62 62 63 63 62 62 60 61 60 60 61 61 59 58 59 59 58 59 58 58 58 58 59 58 57 56 56 59 58 56 56 56 56 56 57 56 55 57 56 57 56 55 57 58 57 58 56 56 55 55 54 53 52 52 52 54 54 55 54 53 54 55 56 55 54 53 53 53 53 53